Home > Weather > Djibouti > Past weeks

Flag for Djibouti Weather for the Past 2 Weeks in Djibouti, Djibouti

Now
86 °F

Passing clouds.


Feels Like: 99 °F
Forecast: 82 / 91 °F
Wind: 5 mph from East

Location: Djibouti Ambouli

Current Time: May 1, 2016 at 12:02:31 AM

Latest Report: Apr 30, 2016 at 11:00 PM


Visibility: N/A

Pressure: 29.86 "Hg

Humidity: 79%

Dew Point: 79 °F

Location of DjiboutiLocation

Historic Weather in Djibouti — Graph

°F

Djibouti Temperature Yesterday

Maximum temperature yesterday: 91 °F (at 12:00 PM)
Minimum temperature yesterday: 81 °F (at 2:00 AM)
Average temperature yesterday: 87 °F

High & Low Weather Summary for the Past Weeks

 TemperatureHumidityPressure
High93 °F (Apr 18, 11:00 AM)100% (Apr 19, 11:00 AM)29.98 "Hg (Apr 19, 11:00 AM)
Low68 °F (Apr 23, 7:00 AM)49% (Apr 18, 11:00 AM)29.68 "Hg (Apr 24, 4:00 PM)
Average88 °F73%29.84 "Hg
* Reported Apr 15 10:00 PM — Apr 30 10:00 PM, Djibouti, Weather by CustomWeather, © 2016

Note: Actual official high and low records may vary slightly from our data, if they occured in-between our weather recording intervals... More about our weather records

Advertising

Djibouti Weather History for the Previous 24 Hours

Scroll right to see more
 ConditionsComfort  
Time TempWeatherWind HumidityBarometerVisibility
10:00 PM
Sat, Apr 30
86 °FPassing clouds.5 mph79%29.86 "HgN/A
9:00 PM86 °FPassing clouds.5 mph75%29.86 "HgN/A
8:00 PM86 °FPassing clouds.5 mph84%29.83 "HgN/A
6:00 PM88 °FPartly sunny.8 mph79%29.80 "HgN/A
5:00 PM91 °FBroken clouds.12 mph63%29.77 "HgN/A
4:00 PM91 °FPartly sunny.8 mph67%29.77 "HgN/A
3:00 PM91 °FBroken clouds.13 mph67%29.77 "HgN/A
2:00 PM91 °FScattered clouds.12 mph63%29.80 "HgN/A
1:00 PM91 °FBroken clouds.12 mph63%29.83 "HgN/A
12:00 PM91 °FBroken clouds.12 mph63%29.86 "HgN/A
10:00 AM90 °FBroken clouds.12 mph67%29.89 "HgN/A
9:00 AM90 °FBroken clouds.6 mph67%29.89 "Hg1 mi
8:00 AM86 °FBroken clouds.6 mph100%29.89 "HgN/A
7:00 AM84 °FPartly sunny.6 mph84%29.83 "HgN/A
6:00 AM82 °FPartly sunny.3 mph70%29.83 "HgN/A
5:00 AM81 °FPassing clouds.6 mph74%29.80 "HgN/A
4:00 AM81 °FPassing clouds.6 mph74%29.80 "HgN/A
2:00 AM81 °FPartly cloudy.12 mph74%29.80 "HgN/A
Weather by CustomWeather, © 2016

See weather overviewHow to use our weather pages